TimeEDT,TemperatureF,Dew PointF,Humidity,Sea Level PressureIn,VisibilityMPH,Wind Direction,Wind SpeedMPH,Gust SpeedMPH,PrecipitationIn,Events,Conditions,WindDirDegrees,DateUTC
12:53 AM,64.0,62.1,93,29.92,6.0,WSW,4.6,-,N/A,,Clear,240,2013-08-03 04:53:00
1:53 AM,64.0,63.0,96,29.94,5.0,West,3.5,-,N/A,,Clear,280,2013-08-03 05:53:00
2:43 AM,62.6,62.6,100,29.95,1.8,West,3.5,-,N/A,,Clear,280,2013-08-03 06:43:00
2:53 AM,62.1,61.0,96,29.94,1.2,NW,3.5,-,N/A,,Clear,310,2013-08-03 06:53:00
3:00 AM,62.6,60.8,94,29.95,2.0,Calm,Calm,-,N/A,,Clear,0,2013-08-03 07:00:00
3:08 AM,62.6,60.8,94,29.95,3.0,Calm,Calm,-,N/A,,Clear,0,2013-08-03 07:08:00
3:32 AM,62.6,60.8,94,29.94,2.5,Calm,Calm,-,N/A,,Clear,0,2013-08-03 07:32:00
3:39 AM,62.6,60.8,94,29.94,5.0,Calm,Calm,-,N/A,,Clear,0,2013-08-03 07:39:00
3:53 AM,62.1,61.0,96,29.94,5.0,Calm,Calm,-,N/A,,Clear,0,2013-08-03 07:53:00
4:16 AM,60.8,59.0,94,29.95,1.5,Calm,Calm,-,N/A,,Clear,0,2013-08-03 08:16:00
4:18 AM,59.0,57.2,94,29.95,0.8,Calm,Calm,-,N/A,,Clear,0,2013-08-03 08:18:00
4:28 AM,59.0,57.2,94,29.95,0.5,Calm,Calm,-,N/A,Fog,Fog,0,2013-08-03 08:28:00
4:33 AM,60.8,59.0,94,29.95,1.0,Calm,Calm,-,N/A,,Clear,0,2013-08-03 08:33:00
4:43 AM,57.2,57.2,100,29.95,0.5,Calm,Calm,-,N/A,Fog,Fog,0,2013-08-03 08:43:00
4:51 AM,59.0,57.2,94,29.95,1.0,Calm,Calm,-,N/A,,Clear,0,2013-08-03 08:51:00
4:53 AM,59.0,57.9,96,29.94,1.8,Calm,Calm,-,N/A,,Clear,0,2013-08-03 08:53:00
4:56 AM,59.0,57.2,94,29.95,3.0,Calm,Calm,-,N/A,,Clear,0,2013-08-03 08:56:00
5:32 AM,57.2,57.2,100,29.96,1.8,Calm,Calm,-,N/A,,Clear,0,2013-08-03 09:32:00
5:44 AM,53.6,53.6,100,29.96,0.8,Calm,Calm,-,0.01,,Clear,0,2013-08-03 09:44:00
5:53 AM,57.0,55.0,93,29.96,0.5,Calm,Calm,-,0.01,Fog,Fog,0,2013-08-03 09:53:00
6:53 AM,55.0,54.0,96,29.97,0.2,Calm,Calm,-,N/A,Fog,Fog,0,2013-08-03 10:53:00
7:21 AM,55.4,55.4,100,29.97,2.0,Calm,Calm,-,N/A,,Partly Cloudy,0,2013-08-03 11:21:00
7:30 AM,59.0,57.2,94,29.98,5.0,North,4.6,-,N/A,,Clear,350,2013-08-03 11:30:00
7:53 AM,63.0,60.1,90,29.97,10.0,North,5.8,-,N/A,,Clear,360,2013-08-03 11:53:00
8:53 AM,68.0,57.9,70,29.98,10.0,North,4.6,-,N/A,,Clear,360,2013-08-03 12:53:00
9:53 AM,73.0,55.9,55,29.99,10.0,Variable,4.6,-,N/A,,Clear,0,2013-08-03 13:53:00
10:53 AM,75.0,55.9,51,29.99,10.0,North,6.9,-,N/A,,Clear,360,2013-08-03 14:53:00
11:53 AM,75.9,55.0,48,30.00,10.0,NW,8.1,-,N/A,,Clear,320,2013-08-03 15:53:00
12:53 PM,78.1,52.0,40,29.99,10.0,WSW,10.4,17.3,N/A,,Mostly Cloudy,250,2013-08-03 16:53:00
1:53 PM,79.0,53.1,40,29.99,10.0,WNW,6.9,-,N/A,,Mostly Cloudy,290,2013-08-03 17:53:00
2:53 PM,80.1,53.1,39,29.99,10.0,North,9.2,17.3,N/A,,Mostly Cloudy,360,2013-08-03 18:53:00
3:53 PM,79.0,52.0,39,29.99,10.0,NNW,11.5,-,N/A,,Scattered Clouds,330,2013-08-03 19:53:00
4:53 PM,79.0,48.9,35,30.00,10.0,NNW,9.2,-,N/A,,Partly Cloudy,330,2013-08-03 20:53:00
5:53 PM,79.0,50.0,36,29.99,10.0,NNW,10.4,-,N/A,,Partly Cloudy,330,2013-08-03 21:53:00
6:53 PM,78.1,51.1,39,29.99,10.0,North,5.8,-,N/A,,Mostly Cloudy,350,2013-08-03 22:53:00
7:53 PM,75.0,51.1,43,29.99,10.0,NNW,8.1,-,N/A,,Partly Cloudy,330,2013-08-03 23:53:00
8:53 PM,71.1,52.0,51,30.01,10.0,NNW,5.8,-,N/A,,Mostly Cloudy,340,2013-08-04 00:53:00
9:53 PM,70.0,53.1,55,30.01,10.0,North,5.8,-,N/A,,Scattered Clouds,350,2013-08-04 01:53:00
10:53 PM,68.0,54.0,61,30.03,10.0,North,10.4,19.6,N/A,,Clear,360,2013-08-04 02:53:00
11:53 PM,64.9,53.1,65,30.05,10.0,NNE,9.2,-,N/A,,Clear,20,2013-08-04 03:53:00